DLH8BM RJTT-EDDF

Flight info

Callsign DLH8BM
Flight time N/A
Altitude 33000
Route INUBO Y808 PUTER/N0479F340 A590 POXED/N0478F350 A590 POWAL DCT HEDMI R338 MARCC/N0483F370 DCT JUJXI DCT 71N160W DCT AGMIF DCT 79N120W 80N100W 80N080W/N0489F390 DCT BUDUM/M083F390 DCT 80N060W 78N040W 76N030W 73N020W 68N010W DCT RIXUN/N0460F390 DCT MOCHA/N0471F410 DCT FORTY DCT ODMIX DCT CUTEL DCT VENAS/N0460F400 DCT TOPPA/N0466F410 DCT AMGOD DCT PETIK DCT SOGPO DCT DIXAT DIXAT1D
Aircraft A388/J-SADE2E3FGHIJ3J4J5M1RWXY/LB1D1

Departure

Time 2026-04-30 20:02
Airport Tokyo Haneda International Airport (RJTT)

Arrival

Time N/A
Airport Frankfurt Main Airport (EDDF)
Time Latitude Longitude Altitude Speed Heading
2026-04-30 19:27 35.55333 139.78858 29 ft 0 kts 240°
2026-04-30 19:29 35.55331 139.78858 29 ft 0 kts 241°
2026-04-30 19:43 35.55334 139.78864 29 ft 1 kts 241°
2026-04-30 19:43 35.55337 139.78871 28 ft 1 kts 241°
2026-04-30 19:43 35.55340 139.78878 28 ft 1 kts 241°
2026-04-30 19:44 35.55347 139.78892 27 ft 1 kts 241°
2026-04-30 19:44 35.55349 139.78902 28 ft 2 kts 257°
2026-04-30 19:44 35.55348 139.78917 26 ft 2 kts 284°
2026-04-30 19:44 35.55342 139.78929 27 ft 2 kts 306°
2026-04-30 19:45 35.55333 139.78939 27 ft 2 kts 320°
2026-04-30 19:45 35.55326 139.78945 26 ft 1 kts 326°
2026-04-30 19:45 35.55320 139.78949 27 ft 0 kts 330°
2026-04-30 19:51 35.55322 139.78948 27 ft 2 kts 330°
2026-04-30 19:51 35.55344 139.78935 27 ft 7 kts 342°
2026-04-30 19:51 35.55400 139.78947 29 ft 11 kts 38°
2026-04-30 19:51 35.55449 139.79031 29 ft 15 kts 60°
2026-04-30 19:52 35.55486 139.79153 28 ft 10 kts 116°
2026-04-30 19:52 35.55433 139.79222 28 ft 13 kts 147°
2026-04-30 19:52 35.55347 139.79287 28 ft 16 kts 150°
2026-04-30 19:52 35.55238 139.79362 28 ft 19 kts 150°
2026-04-30 19:53 35.55116 139.79449 28 ft 22 kts 150°
2026-04-30 19:53 35.54971 139.79552 28 ft 25 kts 149°
2026-04-30 19:53 35.54822 139.79656 28 ft 23 kts 150°
2026-04-30 19:53 35.54678 139.79758 28 ft 24 kts 150°
2026-04-30 19:54 35.54530 139.79864 28 ft 26 kts 149°
2026-04-30 19:54 35.54279 139.80041 28 ft 14 kts 149°
2026-04-30 19:54 35.54181 139.80111 28 ft 17 kts 149°
2026-04-30 19:55 35.54162 139.80125 28 ft 18 kts 149°
2026-04-30 19:55 35.54100 139.80169 28 ft 20 kts 149°
2026-04-30 19:55 35.53975 139.80259 28 ft 13 kts 149°
2026-04-30 19:55 35.53930 139.80308 28 ft 10 kts 114°
2026-04-30 19:56 35.53928 139.80361 28 ft 0 kts 70°
2026-04-30 19:59 35.53928 139.80362 28 ft 1 kts 70°
2026-04-30 19:59 35.53963 139.80443 28 ft 8 kts 43°
2026-04-30 20:00 35.54011 139.80461 29 ft 8 kts 350°
2026-04-30 20:00 35.54070 139.80435 29 ft 11 kts 329°
2026-04-30 20:00 35.54232 139.80318 29 ft 59 kts 331°
2026-04-30 20:00 35.54784 139.79932 29 ft 120 kts 330°
2026-04-30 20:01 35.56622 139.78664 342 ft 164 kts 337°
2026-04-30 20:01 35.57791 139.78558 465 ft 179 kts 14°
2026-04-30 20:01 35.58863 139.79403 551 ft 191 kts 46°
2026-04-30 20:02 35.60425 139.82352 850 ft 226 kts 60°
2026-04-30 20:02 35.61005 139.84200 1176 ft 241 kts 81°
2026-04-30 20:03 35.60957 139.88263 2618 ft 238 kts 96°
2026-04-30 20:03 35.60927 139.90294 3165 ft 245 kts 95°
2026-04-30 20:03 35.60953 139.92392 3818 ft 249 kts 88°
2026-04-30 20:03 35.61598 139.94427 4430 ft 268 kts 60°
2026-04-30 20:04 35.63033 139.95984 5036 ft 286 kts 32°
2026-04-30 20:04 35.64965 139.96671 5707 ft 296 kts
2026-04-30 20:04 35.67039 139.96787 6314 ft 302 kts
2026-04-30 20:05 35.71281 139.96791 7467 ft 309 kts
2026-04-30 20:05 35.73443 139.96692 8007 ft 313 kts 350°
2026-04-30 20:05 35.77558 139.94995 9230 ft 315 kts 335°
2026-04-30 20:06 35.79598 139.94025 9897 ft 316 kts 335°
2026-04-30 20:06 35.81679 139.93050 10268 ft 326 kts 335°
2026-04-30 20:06 35.83853 139.92027 10431 ft 343 kts 335°
2026-04-30 20:06 35.86132 139.90954 10585 ft 358 kts 335°
2026-04-30 20:07 35.88487 139.89848 10956 ft 365 kts 335°
2026-04-30 20:07 35.90859 139.88737 11548 ft 365 kts 334°
2026-04-30 20:07 35.95614 139.86505 12677 ft 367 kts 333°
2026-04-30 20:08 35.98100 139.85693 13211 ft 378 kts 350°
2026-04-30 20:08 36.00759 139.85901 13751 ft 390 kts
2026-04-30 20:08 36.03350 139.86999 14183 ft 396 kts 17°
2026-04-30 20:08 36.05924 139.88230 14639 ft 398 kts 17°
2026-04-30 20:09 36.08519 139.89471 15093 ft 400 kts 17°
2026-04-30 20:09 36.11127 139.90707 15559 ft 402 kts 17°
2026-04-30 20:09 36.16376 139.93203 16443 ft 408 kts 20°
2026-04-30 20:10 36.20742 139.97818 16979 ft 425 kts 56°
2026-04-30 20:10 36.22028 140.01105 16987 ft 425 kts 73°
2026-04-30 20:10 36.22529 140.04282 17004 ft 422 kts 86°
2026-04-30 20:11 36.22981 140.11475 16997 ft 423 kts 85°
2026-04-30 20:11 36.23370 140.15093 16986 ft 424 kts 83°
2026-04-30 20:11 36.23864 140.18690 16998 ft 423 kts 81°
2026-04-30 20:12 36.24685 140.25827 16999 ft 415 kts 96°
2026-04-30 20:12 36.24151 140.29300 16994 ft 409 kts 115°
2026-04-30 20:12 36.22848 140.32372 17006 ft 400 kts 133°
2026-04-30 20:13 36.20900 140.34755 17284 ft 390 kts 150°
2026-04-30 20:13 36.18645 140.36585 17684 ft 388 kts 155°
2026-04-30 20:13 36.16354 140.38370 18063 ft 392 kts 154°
2026-04-30 20:13 36.14082 140.40284 18401 ft 397 kts 151°
2026-04-30 20:14 36.11848 140.42311 18780 ft 399 kts 149°
2026-04-30 20:14 36.09652 140.44393 19251 ft 398 kts 149°
2026-04-30 20:14 36.07459 140.46505 19531 ft 401 kts 149°
2026-04-30 20:14 36.05254 140.48636 19833 ft 403 kts 149°
2026-04-30 20:15 36.03038 140.50778 20164 ft 405 kts 149°
2026-04-30 20:15 36.00810 140.52928 20474 ft 407 kts 149°
2026-04-30 20:15 35.98574 140.55083 20805 ft 409 kts 149°
2026-04-30 20:15 35.96324 140.57248 21121 ft 411 kts 149°
2026-04-30 20:16 35.94059 140.59426 21435 ft 413 kts 149°
2026-04-30 20:16 35.91785 140.61610 21761 ft 415 kts 149°
2026-04-30 20:16 35.89499 140.63804 22081 ft 418 kts 149°
2026-04-30 20:16 35.87201 140.66008 22337 ft 421 kts 149°
2026-04-30 20:17 35.84871 140.68239 22567 ft 425 kts 150°
2026-04-30 20:17 35.82538 140.70476 22993 ft 424 kts 150°
2026-04-30 20:17 35.80209 140.72707 23326 ft 426 kts 150°
2026-04-30 20:17 35.77860 140.74953 23590 ft 428 kts 150°
2026-04-30 20:18 35.75508 140.77218 23861 ft 432 kts 147°
2026-04-30 20:18 35.73387 140.79908 24127 ft 446 kts 135°
2026-04-30 20:18 35.71728 140.83186 24410 ft 458 kts 121°
2026-04-30 20:18 35.70569 140.86883 24623 ft 466 kts 115°
2026-04-30 20:19 35.69486 140.90653 24820 ft 469 kts 115°
2026-04-30 20:19 35.68384 140.94437 25101 ft 470 kts 116°
2026-04-30 20:19 35.67269 140.98232 25362 ft 473 kts 116°
2026-04-30 20:19 35.66146 141.02038 25617 ft 475 kts 116°
2026-04-30 20:20 35.65016 141.05861 25872 ft 477 kts 116°
2026-04-30 20:20 35.63879 141.09701 26166 ft 479 kts 116°
2026-04-30 20:20 35.62736 141.13557 26456 ft 482 kts 116°
2026-04-30 20:20 35.61585 141.17435 26686 ft 485 kts 116°
2026-04-30 20:21 35.60423 141.21343 26941 ft 488 kts 116°
2026-04-30 20:21 35.59256 141.25269 27266 ft 490 kts 116°
2026-04-30 20:21 35.58080 141.29218 27561 ft 493 kts 116°
2026-04-30 20:21 35.56898 141.33181 27873 ft 496 kts 116°
2026-04-30 20:22 35.55709 141.37161 28264 ft 496 kts 116°
2026-04-30 20:22 35.54520 141.41137 28577 ft 499 kts 116°
2026-04-30 20:22 35.53317 141.45152 28838 ft 502 kts 116°
2026-04-30 20:22 35.52106 141.49185 29081 ft 506 kts 116°
2026-04-30 20:23 35.50904 141.53187 29416 ft 508 kts 116°
2026-04-30 20:23 35.49680 141.57258 29739 ft 510 kts 116°
2026-04-30 20:23 35.48448 141.61348 30047 ft 513 kts 116°
2026-04-30 20:23 35.47207 141.65460 30332 ft 515 kts 116°
2026-04-30 20:24 35.45960 141.69589 30600 ft 518 kts 116°
2026-04-30 20:24 35.44889 141.73844 30848 ft 526 kts 107°
2026-04-30 20:24 35.44300 141.78293 31171 ft 532 kts 98°
2026-04-30 20:24 35.44170 141.82858 31418 ft 539 kts 93°
2026-04-30 20:25 35.44136 141.92112 31885 ft 545 kts 93°
2026-04-30 20:25 35.44103 141.96766 32127 ft 548 kts 94°
2026-04-30 20:26 35.44026 142.06149 32631 ft 553 kts 94°
2026-04-30 20:26 35.43941 142.15637 33032 ft 560 kts 94°
2026-04-30 20:26 35.43896 142.20413 33052 ft 560 kts 94°
2026-04-30 20:27 35.43700 142.39404 33057 ft 555 kts 94°
2026-04-30 20:28 35.43472 142.58350 33065 ft 554 kts 94°
2026-04-30 20:30 35.43148 142.81876 33065 ft 552 kts 94°
2026-04-30 20:31 35.42699 143.10077 33086 ft 551 kts 94°
2026-04-30 20:32 35.44469 143.33311 33094 ft 557 kts 63°
2026-04-30 20:33 35.46354 143.37438 33097 ft 553 kts 52°
2026-04-30 20:33 35.51629 143.44084 33099 ft 538 kts 29°
2026-04-30 20:33 35.54822 143.46390 33103 ft 527 kts 17°
2026-04-30 20:34 35.61689 143.49034 33104 ft 517 kts
2026-04-30 20:34 35.68455 143.52323 33105 ft 529 kts 20°
2026-04-30 20:35 35.71715 143.54461 33106 ft 533 kts 22°
2026-04-30 20:35 35.81340 143.61407 33108 ft 535 kts 24°
2026-04-30 20:36 35.87745 143.66081 33111 ft 535 kts 24°
2026-04-30 20:37 35.97350 143.73078 33135 ft 535 kts 24°
2026-04-30 20:37 36.03765 143.77758 33127 ft 535 kts 24°
2026-04-30 20:38 36.10171 143.82443 33121 ft 535 kts 24°
2026-04-30 20:38 36.16570 143.87131 33120 ft 535 kts 24°
2026-04-30 20:39 36.26175 143.94185 33119 ft 537 kts 25°
2026-04-30 20:40 36.35784 144.01268 33121 ft 538 kts 25°
2026-04-30 20:40 36.42211 144.06019 33124 ft 538 kts 25°
2026-04-30 20:41 36.51849 144.13158 33144 ft 540 kts 25°
2026-04-30 20:41 36.58352 144.17983 33132 ft 546 kts 25°
2026-04-30 20:42 36.64875 144.22838 33132 ft 546 kts 25°
2026-04-30 20:43 36.74633 144.30119 33135 ft 544 kts 25°
2026-04-30 20:43 36.81139 144.34984 33141 ft 547 kts 25°
2026-04-30 20:44 36.90925 144.42338 33141 ft 547 kts 25°
2026-04-30 20:45 37.03953 144.52161 33173 ft 546 kts 25°
2026-04-30 20:45 37.10467 144.57087 33152 ft 548 kts 24°
2026-04-30 20:46 37.20274 144.64519 33535 ft 551 kts 24°
2026-04-30 20:46 37.23561 144.67014 33788 ft 554 kts 24°
2026-04-30 20:47 37.30181 144.72050 34289 ft 558 kts 24°
2026-04-30 20:47 37.33509 144.74587 34543 ft 560 kts 24°
2026-04-30 20:48 37.40181 144.79682 35103 ft 562 kts 23°
2026-04-30 20:48 37.43518 144.82234 35428 ft 561 kts 23°
2026-04-30 20:48 37.45724 144.83923 35648 ft 561 kts 23°
2026-04-30 20:48 37.49053 144.86473 35977 ft 560 kts 23°
2026-04-30 20:49 37.52381 144.89024 36293 ft 560 kts 22°
2026-04-30 20:49 37.55707 144.91577 36602 ft 559 kts 22°
2026-04-30 20:49 37.59024 144.94126 36917 ft 558 kts 22°
2026-04-30 20:50 37.65651 144.99225 37522 ft 557 kts 22°
2026-04-30 20:50 37.68956 145.01773 37859 ft 556 kts 22°
2026-04-30 20:50 37.72247 145.04315 38216 ft 554 kts 21°
2026-04-30 20:50 37.75538 145.06855 38486 ft 554 kts 21°
2026-04-30 20:51 37.78818 145.09390 38772 ft 553 kts 21°
2026-04-30 20:51 37.85371 145.14465 39286 ft 551 kts 21°
2026-04-30 20:51 37.88642 145.17001 39479 ft 551 kts 21°
2026-04-30 20:52 37.91908 145.19536 39698 ft 550 kts 21°
2026-04-30 20:52 37.95176 145.22075 39857 ft 551 kts 21°
2026-04-30 20:52 38.01723 145.27169 40178 ft 553 kts 21°
2026-04-30 20:53 38.05007 145.29728 40190 ft 557 kts 21°
2026-04-30 20:53 38.11537 145.34838 40208 ft 548 kts 21°
2026-04-30 20:54 38.21343 145.42507 40189 ft 552 kts 21°
2026-04-30 20:55 38.31120 145.50244 40192 ft 555 kts 25°
2026-04-30 20:55 38.37207 145.56534 40223 ft 570 kts 35°
2026-04-30 20:56 38.45918 145.66820 40179 ft 568 kts 33°
2026-04-30 20:57 38.54629 145.77086 40176 ft 568 kts 34°
2026-04-30 20:57 38.60422 145.83956 40186 ft 569 kts 34°
2026-04-30 20:58 38.69121 145.94302 40236 ft 570 kts 34°
2026-04-30 20:58 38.74935 146.01236 40188 ft 572 kts 34°
2026-04-30 20:59 38.83686 146.11706 40213 ft 575 kts 33°
2026-04-30 21:00 38.95383 146.25757 40228 ft 577 kts 34°
2026-04-30 21:01 39.04176 146.36367 40257 ft 578 kts 33°
2026-04-30 21:02 39.12959 146.47002 40251 ft 577 kts 33°
2026-04-30 21:02 39.18798 146.54092 40247 ft 577 kts 33°
2026-04-30 21:03 39.24628 146.61189 40242 ft 575 kts 33°
2026-04-30 21:03 39.30441 146.68281 40237 ft 574 kts 33°
2026-04-30 21:04 39.36240 146.75373 40235 ft 574 kts 33°
2026-04-30 21:04 39.44926 146.86030 40251 ft 573 kts 33°
2026-04-30 21:05 39.50703 146.93139 40235 ft 573 kts 33°
2026-04-30 21:05 39.56473 147.00255 40234 ft 573 kts 33°
2026-04-30 21:06 39.62236 147.07379 40230 ft 573 kts 33°
2026-04-30 21:06 39.67963 147.14479 40243 ft 573 kts 32°
2026-04-30 21:07 39.73726 147.21638 40247 ft 573 kts 33°
2026-04-30 21:07 39.79484 147.28808 40247 ft 573 kts 33°
2026-04-30 21:08 39.85279 147.36042 40245 ft 574 kts 33°
2026-04-30 21:08 39.91030 147.43243 40262 ft 574 kts 32°
2026-04-30 21:09 39.96778 147.50453 40262 ft 574 kts 32°
2026-04-30 21:09 40.02485 147.57631 40262 ft 573 kts 32°
2026-04-30 21:10 40.08222 147.64864 40249 ft 573 kts 32°
2026-04-30 21:10 40.13938 147.72093 40268 ft 572 kts 32°
2026-04-30 21:11 40.19643 147.79319 40254 ft 571 kts 32°
2026-04-30 21:11 40.25337 147.86551 40249 ft 570 kts 32°
2026-04-30 21:12 40.31019 147.93785 40251 ft 570 kts 32°
2026-04-30 21:12 40.36699 148.01036 40236 ft 570 kts 32°
2026-04-30 21:13 40.42368 148.08290 40237 ft 569 kts 32°
2026-04-30 21:13 40.48028 148.15553 40253 ft 569 kts 32°
2026-04-30 21:14 40.53685 148.22826 40244 ft 568 kts 32°
2026-04-30 21:14 40.59329 148.30102 40259 ft 568 kts 32°
2026-04-30 21:15 40.64967 148.37392 40254 ft 568 kts 32°
2026-04-30 21:15 40.70561 148.44639 40253 ft 567 kts 32°
2026-04-30 21:16 40.76181 148.51939 40268 ft 567 kts 31°
2026-04-30 21:16 40.81797 148.59252 40254 ft 567 kts 32°
2026-04-30 21:17 40.87402 148.66569 40254 ft 566 kts 32°
2026-04-30 21:17 40.92997 148.73892 40259 ft 566 kts 31°
2026-04-30 21:18 40.98581 148.81219 40252 ft 565 kts 31°
2026-04-30 21:18 41.04154 148.88542 40243 ft 564 kts 31°
2026-04-30 21:19 41.09719 148.95871 40243 ft 564 kts 32°
2026-04-30 21:19 41.15259 149.03235 40234 ft 564 kts 32°
2026-04-30 21:20 41.20798 149.10594 40286 ft 563 kts 32°
2026-04-30 21:20 41.26342 149.17956 40252 ft 564 kts 32°
2026-04-30 21:21 41.31883 149.25333 40242 ft 564 kts 32°
2026-04-30 21:22 41.40175 149.36420 40256 ft 563 kts 32°
2026-04-30 21:23 41.51200 149.51232 40263 ft 562 kts 32°
2026-04-30 21:23 41.59437 149.62350 40253 ft 561 kts 32°
2026-04-30 21:24 41.64874 149.69711 40248 ft 560 kts 32°
2026-04-30 21:24 41.70334 149.77123 40258 ft 559 kts 32°
2026-04-30 21:25 41.78493 149.88234 40237 ft 557 kts 32°
2026-04-30 21:26 41.86614 149.99334 40259 ft 555 kts 33°
2026-04-30 21:27 41.94698 150.10428 40233 ft 553 kts 33°
2026-04-30 21:27 42.00070 150.17821 40255 ft 552 kts 33°
2026-04-30 21:28 42.08097 150.28909 40233 ft 551 kts 33°
2026-04-30 21:29 42.16092 150.39993 40236 ft 550 kts 33°
2026-04-30 21:30 42.29372 150.58500 40259 ft 548 kts 34°
2026-04-30 21:31 42.42594 150.77047 40226 ft 547 kts 34°
2026-04-30 21:32 42.50506 150.88200 40253 ft 547 kts 35°
2026-04-30 21:32 42.55766 150.95642 40230 ft 546 kts 35°
2026-04-30 21:33 42.63636 151.06811 40222 ft 545 kts 35°
2026-04-30 21:34 42.68871 151.14264 40216 ft 545 kts 35°
2026-04-30 21:34 42.75825 151.24195 40209 ft 545 kts 35°
2026-04-30 21:35 42.81044 151.31671 40223 ft 544 kts 36°
2026-04-30 21:35 42.86258 151.39157 40229 ft 544 kts 36°
2026-04-30 21:36 42.91460 151.46650 40222 ft 544 kts 36°
2026-04-30 21:37 43.01826 151.61637 40223 ft 542 kts 36°
2026-04-30 21:37 43.06984 151.69124 40217 ft 540 kts 36°
2026-04-30 21:38 43.12124 151.76604 40217 ft 539 kts 37°
2026-04-30 21:38 43.17246 151.84076 40221 ft 537 kts 37°
2026-04-30 21:39 43.22349 151.91541 40205 ft 536 kts 37°
2026-04-30 21:39 43.27436 151.99003 40218 ft 535 kts 37°
2026-04-30 21:40 43.32503 152.06455 40210 ft 533 kts 37°
2026-04-30 21:40 43.37553 152.13900 40197 ft 532 kts 37°
2026-04-30 21:41 43.42589 152.21345 40212 ft 531 kts 37°
2026-04-30 21:41 43.47612 152.28789 40199 ft 530 kts 37°
2026-04-30 21:42 43.52626 152.36238 40197 ft 530 kts 37°
2026-04-30 21:42 43.57629 152.43693 40246 ft 529 kts 38°
2026-04-30 21:43 43.62621 152.51150 40218 ft 529 kts 38°
2026-04-30 21:43 43.67569 152.58562 40213 ft 528 kts 38°
2026-04-30 21:44 43.72538 152.66025 40208 ft 527 kts 38°
2026-04-30 21:44 43.77497 152.73492 40222 ft 526 kts 38°
2026-04-30 21:45 43.82440 152.80955 40217 ft 525 kts 38°
2026-04-30 21:45 43.87373 152.88422 40207 ft 525 kts 38°
2026-04-30 21:46 43.92294 152.95889 40214 ft 525 kts 38°
2026-04-30 21:46 43.97208 153.03368 40211 ft 524 kts 38°
2026-04-30 21:47 44.02113 153.10851 40209 ft 523 kts 38°
2026-04-30 21:47 44.07007 153.18338 40238 ft 523 kts 38°
2026-04-30 21:48 44.11898 153.25838 40217 ft 523 kts 38°
2026-04-30 21:48 44.16777 153.33343 40205 ft 523 kts 38°
2026-04-30 21:49 44.21651 153.40859 40203 ft 523 kts 38°
2026-04-30 21:49 44.26523 153.48390 40208 ft 523 kts 39°
2026-04-30 21:50 44.31387 153.55931 40204 ft 523 kts 39°
2026-04-30 21:50 44.36249 153.63490 40209 ft 523 kts 39°
2026-04-30 21:51 44.41111 153.71066 40228 ft 524 kts 39°
2026-04-30 21:51 44.45970 153.78661 40229 ft 524 kts 39°
2026-04-30 21:52 44.50821 153.86264 40246 ft 523 kts 39°
2026-04-30 21:52 44.55666 153.93876 40275 ft 523 kts 39°
2026-04-30 21:53 44.60502 154.01496 40239 ft 522 kts 39°
2026-04-30 21:53 44.65324 154.09115 40232 ft 521 kts 39°
2026-04-30 21:54 44.70095 154.16673 40220 ft 520 kts 39°
2026-04-30 21:54 44.74893 154.24286 40220 ft 520 kts 39°
2026-04-30 21:55 44.79682 154.31899 40213 ft 519 kts 39°
2026-04-30 21:55 44.84462 154.39519 40211 ft 519 kts 39°
2026-04-30 21:56 44.89126 154.47315 40222 ft 520 kts 40°
2026-04-30 21:56 44.93849 154.55032 40214 ft 519 kts 40°
2026-04-30 21:57 44.98568 154.62751 40214 ft 519 kts 40°
2026-04-30 21:57 45.03269 154.70502 40214 ft 519 kts 40°
2026-04-30 21:58 45.07963 154.78276 40222 ft 520 kts 40°
2026-04-30 21:58 45.12650 154.86070 40221 ft 520 kts 40°
2026-04-30 21:59 45.17332 154.93879 40223 ft 520 kts 40°
2026-04-30 22:00 45.24346 155.05620 40234 ft 520 kts 40°
2026-04-30 22:00 45.31343 155.17383 40228 ft 519 kts 40°
2026-04-30 22:01 45.35997 155.25232 40225 ft 519 kts 40°
2026-04-30 22:01 45.40643 155.33091 40234 ft 519 kts 40°
2026-04-30 22:02 45.45275 155.40950 40225 ft 517 kts 40°
2026-04-30 22:02 45.49892 155.48803 40217 ft 517 kts 40°
2026-04-30 22:03 45.54497 155.56659 40246 ft 516 kts 41°
2026-04-30 22:03 45.59085 155.64507 40228 ft 514 kts 41°
2026-04-30 22:04 45.63626 155.72296 40220 ft 513 kts 41°
2026-04-30 22:05 45.70488 155.84108 40246 ft 511 kts 41°
2026-04-30 22:05 45.75021 155.91938 40225 ft 510 kts 41°
2026-04-30 22:06 45.79537 155.99764 40220 ft 509 kts 41°
2026-04-30 22:06 45.86285 156.11493 40205 ft 508 kts 41°
2026-04-30 22:07 45.90770 156.19317 40205 ft 507 kts 41°
2026-04-30 22:07 45.95220 156.27100 40200 ft 508 kts 41°
2026-04-30 22:08 45.99697 156.34953 40200 ft 508 kts 41°
2026-04-30 22:08 46.04174 156.42827 40213 ft 509 kts 42°
2026-04-30 22:09 46.08654 156.50732 40220 ft 510 kts 42°
2026-04-30 22:09 46.13130 156.58653 40216 ft 510 kts 42°
2026-04-30 22:10 46.17606 156.66594 40218 ft 510 kts 42°
2026-04-30 22:10 46.22087 156.74565 40205 ft 512 kts 43°
2026-04-30 22:11 46.28803 156.86562 40209 ft 512 kts 43°
2026-04-30 22:12 46.33278 156.94583 40210 ft 512 kts 43°
2026-04-30 22:12 46.37748 157.02616 40218 ft 512 kts 43°
2026-04-30 22:13 46.42212 157.10665 40199 ft 512 kts 43°
2026-04-30 22:13 46.46665 157.18715 40199 ft 511 kts 43°
2026-04-30 22:14 46.51110 157.26775 40223 ft 511 kts 43°
2026-04-30 22:14 46.55542 157.34834 40207 ft 510 kts 43°
2026-04-30 22:15 46.59961 157.42895 40209 ft 509 kts 43°
2026-04-30 22:15 46.64369 157.50957 40187 ft 509 kts 44°
2026-04-30 22:16 46.68764 157.59019 40189 ft 508 kts 44°
2026-04-30 22:17 46.77526 157.75163 40163 ft 507 kts 44°
2026-04-30 22:17 46.84076 157.87292 40192 ft 507 kts 44°
2026-04-30 22:18 46.90611 157.99447 40161 ft 507 kts 44°
2026-04-30 22:19 46.97110 158.11589 40159 ft 507 kts 44°
2026-04-30 22:20 47.03660 158.23878 40159 ft 508 kts 45°
2026-04-30 22:20 47.10144 158.36102 40153 ft 508 kts 45°
2026-04-30 22:21 47.14477 158.44300 40143 ft 508 kts 45°
2026-04-30 22:21 47.18810 158.52519 40145 ft 509 kts 45°
2026-04-30 22:22 47.23137 158.60755 40141 ft 509 kts 45°
2026-04-30 22:22 47.26758 158.67668 40135 ft 509 kts 45°
2026-04-30 22:23 47.31077 158.75935 40133 ft 509 kts 45°
2026-04-30 22:23 47.35391 158.84211 40122 ft 510 kts 46°
2026-04-30 22:24 47.39699 158.92508 40124 ft 509 kts 46°
2026-04-30 22:24 47.44002 159.00820 40122 ft 509 kts 46°
2026-04-30 22:25 47.48295 159.09136 40114 ft 509 kts 46°
2026-04-30 22:25 47.52586 159.17474 40114 ft 509 kts 46°
2026-04-30 22:26 47.58983 159.29949 40109 ft 510 kts 46°
2026-04-30 22:27 47.63262 159.38328 40103 ft 510 kts 46°
2026-04-30 22:27 47.69676 159.50930 40111 ft 510 kts 47°
2026-04-30 22:28 47.76072 159.63562 40102 ft 510 kts 47°
2026-04-30 22:29 47.84565 159.80422 40093 ft 509 kts 47°
2026-04-30 22:31 47.99341 160.10004 40081 ft 508 kts 48°